| time (UTC) | temp C | wind direction | speed KPH | gust KPH | rain 1hr cm | rain 24hr cm | rain mn cm | humidity % | barometer mb |
| 20260506200106 | 0 | 360 | 4.8 | 9.7 | 0.00 | 0.08 | 0.08 | 96 | 1010.9 |
| 20260506194550 | 0 | 360 | 3.2 | 6.4 | 0.00 | 0.08 | 0.08 | 95 | 1010.8 |
| 20260506193054 | 0 | 360 | 3.2 | 4.8 | 0.00 | 0.08 | 0.08 | 94 | 1010.8 |
| 20260506191608 | 0 | 360 | 1.6 | 6.4 | 0.00 | 0.08 | 0.08 | 93 | 1010.7 |
| 20260506190040 | 0 | 360 | 6.4 | 9.7 | 0.00 | 0.08 | 0.08 | 92 | 1010.6 |
| 20260506184553 | 0 | 360 | 4.8 | 8.0 | 0.00 | 0.08 | 0.08 | 93 | 1010.6 |
| 20260506183053 | 0 | 360 | 4.8 | 6.4 | 0.00 | 0.08 | 0.08 | 94 | 1010.5 |
| 20260506181556 | 0 | 360 | 0.0 | 0.0 | 0.00 | 0.08 | 0.08 | 95 | 1010.5 |
| 20260506180104 | 0 | 360 | 0.0 | 0.0 | 0.00 | 0.08 | 0.08 | 96 | 1010.5 |
| 20260506174554 | 0 | 360 | 0.0 | 0.0 | 0.00 | 0.08 | 0.08 | 97 | 1010.5 |
| 20260506173119 | 0 | 360 | 0.0 | 1.6 | 0.00 | 0.08 | 0.08 | 97 | 1010.6 |
| 20260506171544 | 0 | 360 | 3.2 | 6.4 | 0.03 | 0.08 | 0.08 | 98 | 1010.5 |
| 20260506170002 | -1 | 360 | 4.8 | 8.0 | 0.03 | 0.08 | 0.08 | 99 | 1010.5 |
| 20260506164552 | -1 | 360 | 3.2 | 8.0 | 0.03 | 0.08 | 0.08 | 99 | 1010.6 |
| 20260506163058 | -1 | 360 | 6.4 | 8.0 | 0.03 | 0.08 | 0.08 | 99 | 1010.6 |
| 20260506161601 | -1 | 360 | 4.8 | 8.0 | 0.00 | 0.05 | 0.05 | 99 | 1010.6 |
| 20260506154549 | -1 | 360 | 6.4 | 9.7 | 0.00 | 0.05 | 0.05 | 99 | 1010.5 |
| 20260506153048 | -1 | 360 | 6.4 | 11.3 | 0.00 | 0.05 | 0.05 | 99 | 1010.4 |
| 20260506151501 | 0 | 360 | 8.0 | 12.9 | 0.00 | 0.05 | 0.05 | 98 | 1010.2 |
| 20260506144606 | 0 | 360 | 9.7 | 12.9 | 0.00 | 0.05 | 0.05 | 97 | 1010.0 |
| 20260506143058 | 0 | 360 | 8.0 | 12.9 | 0.00 | 0.05 | 0.05 | 95 | 1009.9 |
| 20260506141546 | 0 | 360 | 11.3 | 16.1 | 0.00 | 0.05 | 0.05 | 91 | 1009.8 |
| 20260506140048 | 0 | 360 | 3.2 | 8.0 | 0.00 | 0.05 | 0.05 | 92 | 1009.7 |
| 20260506134603 | 0 | 360 | 8.0 | 14.5 | 0.00 | 0.05 | 0.05 | 91 | 1009.7 |
| 20260506133100 | 0 | 360 | 8.0 | 17.7 | 0.00 | 0.05 | 0.05 | 91 | 1009.6 |
| 20260506131543 | 0 | 360 | 14.5 | 20.9 | 0.00 | 0.05 | 0.05 | 92 | 1009.5 |
| 20260506130053 | 0 | 360 | 4.8 | 8.0 | 0.00 | 0.05 | 0.05 | 95 | 1009.4 |
| 20260506124502 | 0 | 360 | 1.6 | 6.4 | 0.00 | 0.05 | 0.05 | 96 | 1009.3 |
| 20260506123055 | 0 | 360 | 3.2 | 8.0 | 0.03 | 0.05 | 0.05 | 94 | 1009.2 |
| 20260506121542 | 0 | 360 | 0.0 | 9.7 | 0.03 | 0.05 | 0.05 | 98 | 1009.2 |
| 20260506120049 | 0 | 360 | 1.6 | 4.8 | 0.03 | 0.05 | 0.05 | 98 | 1009.2 |
| 20260506114559 | 0 | 360 | 0.0 | 4.8 | 0.03 | 0.08 | 0.05 | 98 | 1009.1 |
| 20260506113057 | 0 | 360 | 1.6 | 12.9 | 0.00 | 0.05 | 0.05 | 97 | 1008.9 |
| 20260506111547 | 0 | 360 | 11.3 | 16.1 | 0.00 | 0.05 | 0.05 | 93 | 1008.7 |
| 20260506110051 | 0 | 360 | 0.0 | 6.4 | 0.00 | 0.05 | 0.05 | 94 | 1008.6 |
| 20260506104601 | 0 | 360 | 3.2 | 6.4 | 0.03 | 0.05 | 0.05 | 94 | 1008.4 |
| 20260506103043 | 0 | 360 | 4.8 | 9.7 | 0.03 | 0.05 | 0.05 | 95 | 1008.3 |
| 20260506101553 | 0 | 360 | 0.0 | 3.2 | 0.03 | 0.05 | 0.05 | 96 | 1008.3 |
| 20260506100057 | 0 | 360 | 0.0 | 0.0 | 0.03 | 0.05 | 0.05 | 96 | 1008.1 |
| 20260506094501 | 0 | 360 | 0.0 | 3.2 | 0.00 | 0.05 | 0.03 | 97 | 1008.1 |
| 20260506093002 | -1 | 360 | 3.2 | 8.0 | 0.00 | 0.05 | 0.03 | 98 | 1008.1 |
| 20260506091552 | -1 | 360 | 6.4 | 8.0 | 0.00 | 0.05 | 0.03 | 99 | 1007.9 |
| 20260506090050 | -1 | 360 | 6.4 | 14.5 | 0.00 | 0.05 | 0.03 | 98 | 1007.8 |
| 20260506084601 | 0 | 360 | 11.3 | 16.1 | 0.00 | 0.05 | 0.03 | 98 | 1007.7 |
| 20260506083050 | 0 | 360 | 3.2 | 14.5 | 0.00 | 0.05 | 0.03 | 97 | 1007.6 |
| 20260506081555 | 0 | 360 | 6.4 | 12.9 | 0.00 | 0.05 | 0.03 | 98 | 1007.1 |
| 20260506080106 | 0 | 360 | 0.0 | 3.2 | 0.00 | 0.05 | 0.03 | 98 | 1007.0 |
| 20260506073104 | 0 | 360 | 1.6 | 8.0 | 0.00 | 0.05 | 0.03 | 98 | 1006.8 |
| 20260506071600 | 0 | 360 | 0.0 | 6.4 | 0.00 | 0.05 | 0.03 | 98 | 1006.7 |
| 20260506061545 | 0 | 360 | 0.0 | 3.2 | 0.00 | 0.05 | 0.03 | 99 | 1006.3 |
| 20260506044551 | -1 | 360 | 3.2 | 4.8 | 0.00 | 0.03 | 0.00 | 99 | 1005.7 |
| 20260506043052 | -1 | 360 | 3.2 | 4.8 | 0.00 | 0.03 | 0.00 | 99 | 1005.6 |
| 20260506041559 | -1 | 360 | 1.6 | 3.2 | 0.00 | 0.03 | 0.00 | 99 | 1005.6 |
| 20260506040042 | -2 | 360 | 3.2 | 6.4 | 0.00 | 0.03 | 0.00 | 99 | 1005.4 |
| 20260506034557 | -1 | 360 | 0.0 | 4.8 | 0.00 | 0.03 | 0.00 | 99 | 1005.3 |
| 20260506033114 | -1 | 360 | 0.0 | 1.6 | 0.00 | 0.03 | 0.00 | 99 | 1005.2 |
| 20260506031546 | -1 | 360 | 1.6 | 4.8 | 0.00 | 0.03 | 0.00 | 99 | 1005.1 |
| 20260506030059 | -1 | 360 | 1.6 | 4.8 | 0.00 | 0.03 | 0.00 | 99 | 1005.0 |
| 20260506024615 | -1 | 360 | 3.2 | 6.4 | 0.00 | 0.03 | 0.00 | 100 | 1004.9 |
| 20260506023106 | -1 | 360 | 1.6 | 4.8 | 0.00 | 0.03 | 0.00 | 100 | 1004.8 |
| 20260506021556 | -1 | 360 | 1.6 | 6.4 | 0.00 | 0.03 | 0.00 | 100 | 1004.7 |
| 20260506020048 | -1 | 360 | 3.2 | 4.8 | 0.00 | 0.03 | 0.00 | 100 | 1004.6 |
| 20260506014543 | -1 | 360 | 0.0 | 3.2 | 0.00 | 0.03 | 0.00 | 100 | 1004.5 |
| 20260506013047 | -1 | 360 | 0.0 | 9.7 | 0.00 | 0.03 | 0.00 | 100 | 1004.4 |
| 20260506011621 | -1 | 360 | 3.2 | 8.0 | 0.00 | 0.03 | 0.00 | 100 | 1004.3 |
| 20260506010120 | -1 | 360 | 4.8 | 9.7 | 0.00 | 0.03 | 0.00 | 100 | 1004.2 |
| 20260506004549 | -1 | 360 | 8.0 | 12.9 | 0.00 | 0.03 | 0.00 | 100 | 1004.2 |
| 20260506003049 | -1 | 360 | 6.4 | 11.3 | 0.00 | 0.03 | 0.00 | 99 | 1004.1 |
| 20260506001601 | -1 | 360 | 8.0 | 11.3 | 0.00 | 0.03 | 0.00 | 99 | 1004.1 |
| 20260506000051 | -1 | 360 | 8.0 | 12.9 | 0.00 | 0.03 | 0.00 | 99 | 1004.0 |
| 20260505234553 | -1 | 360 | 6.4 | 11.3 | 0.00 | 0.03 | 0.00 | 100 | 1003.9 |
| 20260505233054 | -1 | 360 | 4.8 | 8.0 | 0.00 | 0.03 | 0.00 | 100 | 1003.8 |
| 20260505231549 | -1 | 360 | 4.8 | 8.0 | 0.00 | 0.03 | 0.00 | 99 | 1003.8 |
| 20260505230052 | -1 | 360 | 4.8 | 9.7 | 0.00 | 0.03 | 0.00 | 99 | 1003.7 |
| 20260505224558 | -1 | 360 | 6.4 | 9.7 | 0.00 | 0.03 | 0.00 | 100 | 1003.7 |
| 20260505223042 | -1 | 360 | 8.0 | 11.3 | 0.00 | 0.03 | 0.00 | 100 | 1003.7 |
| 20260505221603 | -1 | 360 | 8.0 | 11.3 | 0.00 | 0.03 | 0.00 | 100 | 1003.6 |
| 20260505220106 | -1 | 360 | 9.7 | 12.9 | 0.00 | 0.03 | 0.00 | 100 | 1003.5 |
| 20260505214551 | -1 | 360 | 6.4 | 12.9 | 0.00 | 0.03 | 0.03 | 99 | 1003.5 |
| 20260505213045 | -1 | 360 | 8.0 | 12.9 | 0.00 | 0.03 | 0.03 | 99 | 1003.5 |
| 20260505211555 | -1 | 360 | 9.7 | 14.5 | 0.00 | 0.03 | 0.03 | 100 | 1003.5 |
| 20260505210057 | -1 | 360 | 8.0 | 16.1 | 0.00 | 0.03 | 0.03 | 99 | 1003.4 |
| 20260505204603 | -1 | 360 | 6.4 | 9.7 | 0.00 | 0.03 | 0.03 | 99 | 1003.3 |
| 20260505203106 | -1 | 360 | 11.3 | 16.1 | 0.00 | 0.03 | 0.03 | 99 | 1003.2 |
| 20260505201547 | -1 | 360 | 11.3 | 19.3 | 0.00 | 0.03 | 0.03 | 100 | 1003.2 |